Date String (YYYY-MM-DD hh:mm:ss) UTC,Instrument flags,absolute air pressure of the measurement (hPa),sample flow rate (lpm),inlet stack bypass flow (lpm),air temperature of the measurement (°C),ambient temperature measured by the external sensor (°C),aerosol sample conditioner tube jacket temperature (°C),OPC LED temperature (°C),internal box temperature (°C),relative humidity of the measurement (%),span deviation,mass concentration of particles derived from Lorenz-Mie calculation of OPC scattering (μg/m³),mass concentration of particles derived from Lorenz-Mie calculation of OPC scattering (μg/m³),mass concentration of particles derived from Lorenz-Mie calculation of OPC scattering (μg/m³)
DateTimeUTC,F1_M11,P_M11,Q1_M11,Q2_M11,T1_M11,T2_M11,T3_M11,T4_M11,T5_M11,U1_M11,ZSPAN_M11,X0_M11,X2_M11,X1_M11
2023-10-23 11:00:00,SystemResetWarning,0823.2,5.00,000.00,029.0,027.4,000.0,037.5,030.6,12.3,0000.0,0013.31,0004.90,0003.86
2023-10-23 11:01:00,SystemResetWarning,0823.2,5.01,000.00,029.0,027.4,000.0,037.5,030.6,12.3,0000.0,0013.11,0004.87,0003.84
2023-10-23 11:02:00,SystemResetWarning,0823.2,5.00,000.00,029.0,027.4,000.0,037.5,030.6,12.4,0000.0,0012.95,0004.82,0003.83
2023-10-23 11:03:00,SystemResetWarning,0823.2,5.00,000.00,029.0,027.4,000.0,037.5,030.6,12.4,0000.0,0012.85,0004.78,0003.81
2023-10-23 11:04:00,SystemResetWarning,0823.3,5.00,000.00,029.0,027.4,000.0,037.5,030.6,12.3,0000.0,0013.12,0004.77,0003.82
2023-10-23 11:05:00,SystemResetWarning,0823.3,5.00,000.00,029.0,027.3,000.0,037.5,030.5,12.4,0000.0,0013.82,0004.76,0003.82
2023-10-23 11:06:00,SystemResetWarning,0823.3,5.00,000.00,029.0,027.3,000.0,037.5,030.5,12.3,0000.0,0013.86,0004.73,0003.80
2023-10-23 11:07:00,SystemResetWarning,0823.3,5.00,000.00,029.0,027.3,000.0,037.5,030.5,12.3,0000.0,0012.47,0004.72,0003.79
2023-10-23 11:08:00,SystemResetWarning,0823.2,5.00,000.00,029.0,027.3,000.0,037.5,030.5,12.3,0000.0,0011.77,0004.71,0003.79
2023-10-23 11:09:00,SystemResetWarning,0823.3,5.00,000.00,029.0,027.3,000.0,037.5,030.5,12.3,0000.0,0012.24,0004.77,0003.79
2023-10-23 11:10:00,SystemResetWarning,0823.3,5.00,000.00,028.9,027.3,000.0,037.5,030.5,12.2,0000.0,0012.16,0004.85,0003.80
2023-10-23 11:11:00,SystemResetWarning,0823.2,5.00,000.00,028.9,027.3,000.0,037.5,030.5,12.2,0000.0,0011.50,0004.89,0003.82
2023-10-23 11:12:00,SystemResetWarning,0823.2,5.00,000.00,028.9,027.3,000.0,037.4,030.5,12.2,0000.0,0011.58,0004.89,0003.82
2023-10-23 11:13:00,SystemResetWarning,0823.2,5.00,000.00,028.9,027.3,000.0,037.4,030.5,12.2,0000.0,0011.70,0004.93,0003.82
2023-10-23 11:14:00,SystemResetWarning,0823.2,5.00,000.00,028.9,027.3,000.0,037.4,030.4,12.2,0000.0,0011.91,0004.96,0003.82
2023-10-23 11:15:00,SystemResetWarning,0823.2,5.00,000.00,028.9,027.3,000.0,037.4,030.4,12.2,0000.0,0012.10,0005.00,0003.81
2023-10-23 11:16:00,SystemResetWarning,0823.2,5.00,000.00,028.9,027.3,000.0,037.4,030.4,12.2,0000.0,0011.58,0005.01,0003.80
2023-10-23 11:17:00,SystemResetWarning,0823.2,5.00,000.00,028.8,027.2,000.0,037.4,030.4,12.2,0000.0,0011.43,0004.98,0003.79
2023-10-23 11:18:00,SystemResetWarning,0823.2,5.00,000.00,028.8,027.2,000.0,037.4,030.3,12.2,0000.0,0011.47,0005.00,0003.78
2023-10-23 11:19:00,SystemResetWarning,0823.2,5.00,000.00,028.8,027.2,000.0,037.4,030.3,12.3,0000.0,0011.22,0004.98,0003.77
2023-10-23 11:20:00,SystemResetWarning,0823.2,5.00,000.00,028.8,027.2,000.0,037.4,030.3,12.3,0000.0,0010.82,0004.98,0003.76
2023-10-23 11:21:00,SystemResetWarning,0823.2,4.99,000.00,028.8,027.2,000.0,037.4,030.3,12.3,0000.0,0010.69,0004.94,0003.75
2023-10-23 11:22:00,SystemResetWarning,0823.2,5.00,000.00,028.8,027.2,000.0,037.3,030.3,12.4,0000.0,0010.57,0004.92,0003.75
2023-10-23 11:23:00,SystemResetWarning,0823.3,4.99,000.00,028.7,027.1,000.0,037.3,030.3,12.4,0000.0,0010.76,0004.87,0003.74
2023-10-23 11:24:00,SystemResetWarning,0823.3,4.99,000.00,028.7,027.1,000.0,037.3,030.3,12.4,0000.0,0010.86,0004.84,0003.73
2023-10-23 11:25:00,SystemResetWarning,0823.3,5.00,000.00,028.7,027.1,000.0,037.3,030.3,12.4,0000.0,0011.32,0004.81,0003.72
2023-10-23 11:26:00,SystemResetWarning,0823.4,5.01,000.00,028.7,027.1,000.0,037.3,030.3,12.5,0000.0,0011.30,0004.75,0003.71
2023-10-23 11:27:00,SystemResetWarning,0823.3,5.01,000.00,028.7,027.1,000.0,037.3,030.3,12.4,0000.0,0012.69,0004.73,0003.71
2023-10-23 11:28:00,SystemResetWarning,0823.3,5.00,000.00,028.7,027.1,000.0,037.3,030.3,12.4,0000.0,0012.66,0004.71,0003.71
2023-10-23 11:29:00,SystemResetWarning,0823.3,5.01,000.00,028.7,027.1,000.0,037.3,030.4,12.4,0000.0,0012.89,0004.70,0003.71
2023-10-23 11:30:00,SystemResetWarning,0823.3,5.01,000.00,028.7,027.1,000.0,037.3,030.3,12.3,0000.0,0013.18,0004.72,0003.72
2023-10-23 11:31:00,SystemResetWarning,0823.2,5.00,000.00,028.7,027.1,000.0,037.3,030.3,12.3,0000.0,0013.52,0004.69,0003.71
2023-10-23 11:32:00,SystemResetWarning,0823.3,5.00,000.00,028.7,027.1,000.0,037.2,030.3,12.3,0000.0,0013.53,0004.65,0003.72
2023-10-23 11:33:00,SystemResetWarning,0823.3,4.99,000.00,028.7,027.1,000.0,037.2,030.3,12.3,0000.0,0013.55,0004.64,0003.72
2023-10-23 11:34:00,SystemResetWarning,0823.3,5.00,000.00,028.7,027.1,000.0,037.2,030.2,12.3,0000.0,0013.98,0004.65,0003.72
2023-10-23 11:35:00,SystemResetWarning,0823.3,5.00,000.00,028.7,027.1,000.0,037.2,030.2,12.3,0000.0,0014.35,0004.68,0003.74
2023-10-23 11:36:00,SystemResetWarning,0823.3,4.99,000.00,028.7,027.1,000.0,037.2,030.2,12.3,0000.0,0014.10,0004.68,0003.74
2023-10-23 11:37:00,SystemResetWarning,0823.3,5.00,000.00,028.6,027.1,000.0,037.2,030.2,12.3,0000.0,0014.26,0004.70,0003.75
2023-10-23 11:38:00,SystemResetWarning,0823.3,5.00,000.00,028.6,027.0,000.0,037.2,030.2,12.3,0000.0,0012.55,0004.68,0003.77
2023-10-23 11:39:00,SystemResetWarning,0823.3,5.00,000.00,028.6,027.0,000.0,037.2,030.2,12.3,0000.0,0012.09,0004.70,0003.78
2023-10-23 11:40:00,SystemResetWarning,0823.3,5.00,000.00,028.6,027.0,000.0,037.2,030.2,12.2,0000.0,0011.99,0004.73,0003.79
2023-10-23 11:41:00,SystemResetWarning,0823.3,5.00,000.00,028.6,027.0,000.0,037.1,030.2,12.2,0000.0,0012.00,0004.75,0003.79
2023-10-23 11:42:00,SystemResetWarning,0823.3,5.01,000.00,028.6,027.0,000.0,037.1,030.2,12.2,0000.0,0012.19,0004.74,0003.80
2023-10-23 11:43:00,SystemResetWarning,0823.3,5.00,000.00,028.6,027.0,000.0,037.1,030.2,12.2,0000.0,0012.33,0004.73,0003.79
2023-10-23 11:44:00,SystemResetWarning,0823.2,5.01,000.00,028.6,027.0,000.0,037.1,030.2,12.2,0000.0,0012.24,0004.70,0003.79
2023-10-23 11:45:00,SystemResetWarning,0823.2,5.00,000.00,028.6,027.0,000.0,037.1,030.2,12.2,0000.0,0012.11,0004.67,0003.79
2023-10-23 11:46:00,SystemResetWarning,0823.2,5.00,000.00,028.6,027.1,000.0,037.1,030.2,12.1,0000.0,0012.17,0004.66,0003.80
2023-10-23 11:47:00,SystemResetWarning,0823.1,5.00,000.00,028.6,027.1,000.0,037.1,030.2,12.1,0000.0,0012.28,0004.70,0003.79
2023-10-23 11:48:00,SystemResetWarning,0823.1,5.00,000.00,028.6,027.1,000.0,037.1,030.3,12.1,0000.0,0012.26,0004.70,0003.78
2023-10-23 11:49:00,SystemResetWarning,0823.1,5.00,000.00,028.6,027.1,000.0,037.1,030.3,12.1,0000.0,0012.05,0004.68,0003.77
2023-10-23 11:50:00,SystemResetWarning,0823.2,5.00,000.00,028.6,027.1,000.0,037.1,030.3,12.1,0000.0,0012.23,0004.66,0003.76
2023-10-23 11:51:00,SystemResetWarning,0823.2,4.99,000.00,028.6,027.1,000.0,037.1,030.2,12.1,0000.0,0012.23,0004.65,0003.77
2023-10-23 11:52:00,SystemResetWarning,0823.3,5.00,000.00,028.6,027.1,000.0,037.1,030.3,12.2,0000.0,0011.77,0004.60,0003.76
2023-10-23 11:53:00,SystemResetWarning,0823.3,5.00,000.00,028.6,027.1,000.0,037.1,030.3,12.2,0000.0,0011.90,0004.59,0003.75
2023-10-23 11:54:00,SystemResetWarning,0823.3,5.00,000.00,028.6,027.1,000.0,037.1,030.2,12.1,0000.0,0012.54,0004.59,0003.76
2023-10-23 11:55:00,SystemResetWarning,0823.3,5.00,000.00,028.6,027.0,000.0,037.1,030.2,12.0,0000.0,0013.09,0004.63,0003.76
2023-10-23 11:56:00,SystemResetWarning,0823.3,5.00,000.00,028.6,027.0,000.0,037.1,030.2,11.8,0000.0,0013.16,0004.67,0003.76
2023-10-23 11:57:00,SystemResetWarning,0823.1,5.00,000.00,028.6,027.0,000.0,037.1,030.2,11.6,0000.0,0012.49,0004.67,0003.76
2023-10-23 11:58:00,SystemResetWarning,0823.0,5.00,000.00,028.6,027.0,000.0,037.1,030.2,11.6,0000.0,0012.14,0004.61,0003.75
2023-10-23 11:59:00,SystemResetWarning,0823.1,5.00,000.00,028.6,027.0,000.0,037.1,030.2,11.7,0000.0,0011.89,0004.58,0003.77
